Regional Weather Roundup
Issued by NWS

Home | Current Version | Previous Version | Text Only | Print | Product List | Glossary Off
Versions: 1 2 3 4 5 6 7 8 9 10 11 12 13 14 15 16 17 18 19 20 21 22 23 24 25 26 27 28 29 30 31 32 33 34 35 36 37 38 39 40 41 42 43 44 45 46 47 48 49 50

000
ASUS43 KMKX 201000
RWRWI

WISCONSIN REGIONAL WEATHER ROUNDUP
NATIONAL WEATHER SERVICE MILWAUKEE/SULLIVAN WI
400 AM CST SAT JAN 20 2018

NOTE: "FAIR" INDICATES FEW OR NO CLOUDS BELOW 12,000 FEET WITH NO
SIGNIFICANT WEATHER AND/OR OBSTRUCTIONS TO VISIBILITY.

WIZ001-002-006>008-014>016-023>028-201100-
NORTHWEST WISCONSIN

CITY           SKY/WX    TMP DP  RH WIND       PRES   REMARKS
SUPERIOR ARPT  FAIR      28  26  93 SW3       29.72S
ASHLAND        FAIR      31  27  85 SW9       29.73R WCI  23
HAYWARD        FOG       19  15  84 CALM      29.73S VSB 1/4
SIREN          FAIR      24  23  96 CALM      29.75S
CUMBERLAND     FAIR      27  25  93 W5        29.74S FOG     WCI  21
RICE LAKE      FAIR      15  14  94 CALM      29.76R
CHETEK         FAIR      18  17  95 CALM      29.75R FOG
LADYSMITH      FAIR      16  14  92 CALM      29.74S FOG
EAU CLAIRE     NOT AVBL
MENOMONIE      FAIR      26  24  94 SW5       29.77R WCI  20
NEW RICHMOND   FAIR      19  18  95 W5        29.77S FOG     WCI  12
OSCEOLA        FOG       18  18 100 CALM      29.79S VSB 1/4
$$

WIZ003>005-009-010-017-018-201100-
NORTH CENTRAL WISCONSIN

CITY           SKY/WX    TMP DP  RH WIND       PRES   REMARKS
MANITOWISH WTR FAIR      26  26 100 W3        29.68R
ARBOR VITAE    FAIR      32  28  87 W3        29.68S
WOODRUFF       FAIR      32  28  87 W3        29.68S
RHINELANDER    FAIR      31  27  85 W6        29.69R WCI  25
EAGLE RIVER    FAIR      23  22  97 W7        29.67R WCI  15
LAND O LAKES   FAIR      25  24  96 W3        29.68R
PHILLIPS       FAIR      17  17 100 CALM      29.70S
TOMAHAWK       FAIR      26  24  93 W3        29.70S
MEDFORD        FAIR      27  26  96 SW3       29.72R
MERRILL        FAIR      27  26  98 CALM      29.72R
$$

WIZ029-030-035-036-043>047-201100-
CENTRAL WISCONSIN

CITY           SKY/WX    TMP DP  RH WIND       PRES   REMARKS
WAUSAU         FAIR      30  26  85 W6        29.71R WCI  24
MOSINEE        FAIR      32  28  86 W8        29.73S WCI  25
MARSHFIELD     FAIR      26  24  92 CALM      29.73R
STEVENS POINT  FAIR      25  25 100 CALM      29.74S
WAUPACA        FAIR      37  29  74 W5        29.74R WCI  33
WAUTOMA        FAIR      24  21  88 SW5       29.76R WCI  18
WISC RAPIDS    FAIR      24  20  84 CALM      29.76R
CAMP DOUGLAS   FAIR      23  23  99 CALM      29.76R FOG
$$

WIZ011>013-019>022-031-037>040-048>050-201100-
NORTHEAST WISCONSIN

CITY           SKY/WX    TMP DP  RH WIND       PRES   REMARKS
ANTIGO         FAIR      27  25  92 W6        29.69S WCI  21
SHAWANO        FAIR      36  29  76 SW6       29.71R WCI  31
OCONTO         FAIR      35  28  76 SW6       29.71R WCI  30
STURGEON BAY   NOT AVBL
GREEN BAY      FAIR      32  26  78 S7        29.73R WCI  26
MANITOWOC      FAIR      36  28  73 W9        29.74R WCI  29
APPLETON       FAIR      30  23  74 CALM      29.72R
CLINTONVILLE   FAIR      34  28  80 W5        29.72R WCI  30
OSHKOSH        FAIR      33  27  78 SW3       29.74R
$$

WIZ032>034-041-042-053>061-201100-
SOUTHWEST WISCONSIN

CITY           SKY/WX    TMP DP  RH WIND       PRES   REMARKS
LA CROSSE      FAIR      27  26  96 CALM      29.78S
SPARTA         FAIR      22  22  99 CALM      29.78S
VIROQUA        FAIR      31  31  99 SW6       29.76S WCI  26
BOSCOBEL       FAIR      28  24  85 CALM      29.80R
PRAIRIE DU CHI FAIR      29  26  88 CALM      29.79S
PLATTEVILLE    FAIR      32  29  90 SW5       29.79S WCI  27
$$

WIZ056-057-062-063-064-067-068-201100-
SOUTH CENTRAL WISCONSIN

CITY           SKY/WX    TMP DP  RH WIND       PRES   REMARKS
REEDSBURG      FAIR      31  28  89 SW3       29.77R
BARABOO/DELLS  FAIR      32  27  80 SW6       29.77R WCI  27
LONE ROCK      NOT AVBL
MINERAL POINT  FAIR      34  32  93 W3        29.77S
MADISON        FAIR      31  26  82 CALM      29.79R
MIDDLETON      FAIR      33  28  83 CALM      29.78S
WATERTOWN      FAIR      32  29  87 SW3       29.77F
MONROE         FAIR      34  28  80 SW9       29.78S WCI  26
JANESVILLE     FAIR      34  28  80 W5        29.79S WCI  30
$$

WIZ051-052-058>065-066-070>072-201100-
SOUTHEAST WISCONSIN

CITY           SKY/WX    TMP DP  RH WIND       PRES   REMARKS
MILWAUKEE      MOCLDY    38  29  70 W8        29.77R WCI  32
WAUKESHA       FAIR      34  28  80 SW9       29.78S WCI  26
MILWAUKEE/TIMM FAIR      36  27  69 W12       29.76F WCI  27
RACINE         FAIR      37  29  72 W9        29.79R WCI  30
BURLINGTON     FAIR      36  28  73 SW9       29.78F WCI  29
KENOSHA        FAIR      37  28  70 W16       29.78S WCI  28
FOND DU LAC    FAIR      33  25  72 SW7       29.76R WCI  27
SHEBOYGAN      FAIR      36  29  75 W8        29.74R WCI  30
WEST BEND      FAIR      34  28  80 W9        29.75S WCI  26
JUNEAU         MOCLDY    30  26  83 SW3       29.78R
$$

LSZ147-162-201100-
LAKE SUPERIOR

STATION/POSITION TIME  TEMP    WIND        PRES    WAVE
                       AIR SEA DIR/SP/G            HT/PER
                 (UTC) (F)     (DEG/KT/KT) (MB)    (FT/S)
DEVILS ISLAND    0900   38     270/ 14/ 15 1005.5R
SAXON HARBOR     0930   31     190/  5/  8 1005.8S
$$

LMZ867-665-643>646-201100-
LAKE MICHIGAN

STATION/POSITION TIME  TEMP    WIND        PRES    WAVE
                       AIR SEA DIR/SP/G            HT/PER
                 (UTC) (F)     (DEG/KT/KT) (MB)    (FT/S)
NORTHPORT PIER   0940   37     260/  8/ 17 1005.1R
KEWAUNEE LAKESHO 0930   38     290/  5/ 10 1005.4R
SHEBOYGAN LAKESH 0900   39     270/ 12/ 15 1006.9R
PORT WASHINGTON  0940   38     280/  5/ 10 1008.5R
MILWAUKEE LAKESH 0940   40     260/ 11/ 14   N/A
KENOSHA   LAKESH 0900   40     250/ 13/ 17 1008.8
$$

TC  - TEMPERATURE IN CELSIUS
VSB - VISIBILITY IN STATUTE MILES
WCI - WIND CHILL INDEX
HX  - HEAT INDEX





USA.gov is the U.S. government's official web portal to all federal, state and local government web resources and services.